Вернуться в каталог

ORBCOMM FM 41

АктивенСвязьLEO
NORAD 33061·PAYLOAD·🇺🇸 United States

Запущен Jun 19, 2008 с Kapustin Yar

Loading…

Ближайшие Пролёты (ближайшие 24 часа)

TLE

СвежийSource: Space-Track

Эпоха: Sep 14, 2026, 04:23 UTC

1 33061U 08031B   26257.18303413  .00000861  00000-0  13196-3 0  9998
2 33061  48.4445 317.3859 0003974 193.1080 196.2972 14.82826366981577

Отслеживайте ORBCOMM FM 41 в реальном времени с AllMySat

Download on the App Store